Tracking 30995 objects as of 7-Jul-2025
HD Live streaming from Space Station
objects crossing your sky now

STARLINK-32681

Track STARLINK-32681 now!
10-day predictions
STARLINK-32681 is classified as:


NORAD ID: 62506
Int'l Code: 2025-003V
Perigee: 488.5 km
Apogee: 491.7 km
Inclination: 43.0 °
Period: 94.3 minutes
Semi major axis: 6861 km
RCS: Unknown
Launch date: January 6, 2025
Source: United States (US)
Launch site: AIR FORCE EASTERN TEST RANGE (AFETR)
Your satellite tracking list
STARLINK-2544
Track 1 satellite(s)




NASA's NSSDC Master Catalog

Two Line Element Set (TLE):
1 62506U 25003V   25187.46122628  .00013858  00000-0  51194-3 0  9991
2 62506  43.0031 220.9819 0002325 279.6454  80.4135 15.27594924 29226
Source of the keplerian elements: AFSPC